Regional Weather Roundup
Issued by NWS Portland, ME

Current Version | Previous Version | Text Only | Print | Product List | Glossary Off
Versions: 1 2 3 4 5 6 7 8 9 10 11 12 13 14 15 16 17 18 19 20 21 22 23 24 25 26 27 28 29 30 31 32 33 34 35 36 37 38 39 40 41 42 43 44 45 46 47 48 49 50
000 ASUS41 KGYX 290405 RWRGYX WEATHER ROUNDUP FOR MAINE AND NEW HAMPSHIRE NATIONAL WEATHER SERVICE GRAY ME 1200 AM EDT MON MAY 29 2017 MEZ002-005-006-010-012-015-018-020-021-024-026-027-029-290500- MAINE CITY SKY/WX TMP DP RH WIND PRES REMARKS PORTLAND CLOUDY 49 47 93 SE6 30.03F SANFORD CLOUDY 50 48 93 E3 30.02S BAR HARBOR CLEAR 43 42 97 S3 30.07F WISCASSET CLOUDY 49 47 93 VRB5 30.06S ROCKLAND CLEAR 42 42 100 CALM 30.06S FRYEBURG MOCLDY 50 48 93 SE6 30.01S LEWISTONAUBURN CLOUDY 48 47 96 S6 30.04R AUGUSTA CLOUDY 47 44 90 SE8 30.04F WATERVILLE MOCLDY 47 45 93 CALM 30.01S BANGOR PTCLDY 46 44 93 S9 30.06R GREENVILLE N/A 50 47 89 VRB3 29.99S MILLINOCKET PTCLDY 52 48 86 CALM 30.03R HOULTON CLOUDY 55 49 80 VRB3 30.03R PRESQUE ISLE NOT AVBL FRENCHVILLE CLOUDY 56 51 84 E10 30.00R CARIBOU CLOUDY 58 52 80 SE8 30.01R $$ NHZ002-005-008-009-011-012-014-290500- NEW HAMPSHIRE CITY SKY/WX TMP DP RH WIND PRES REMARKS PORTSMOUTH CLOUDY 50 48 92 E5 29.99S ROCHESTER CLOUDY 50 47 89 E5 30.00S NASHUA CLOUDY 58 54 86 SE5 29.98S MANCHESTER CLOUDY 55 49 80 CALM 29.96F CONCORD CLOUDY 53 50 89 E5 29.98S LACONIA CLOUDY 53 50 89 CALM 29.99S PLYMOUTH CLOUDY 57 52 81 CALM 29.97F BERLIN PTCLDY 51 47 86 CALM 29.96S WHITEFIELD CLEAR 52 47 83 CALM 29.94F JAFFREY CLOUDY 57 53 86 S5 29.97S KEENE CLOUDY 57 53 86 CALM 29.96S LEBANON CLOUDY 62 58 86 S3 29.93S MT WASHINGTON FOG 39 39 100 S16 N/A VSB 1/16 $$ VTZ005-007-008-290500- VERMONT CITY SKY/WX TMP DP RH WIND PRES REMARKS ST JOHNSBURY N/A 58 54 86 MISG 29.92S MONTPELIER PTCLDY 58 55 90 S5 29.97R BURLINGTON MOCLDY 66 53 63 SE9 29.88R $$ MAZ007-012-024-CTZ003-RIZ002-NYZ038-NYZ072-290500- SOUTHERN NEW ENGLAND AND NY CITY SKY/WX TMP DP RH WIND PRES REMARKS BOSTON MOCLDY 56 48 74 S9 29.99F WORCESTER MOCLDY 53 45 74 SW6 29.98S NANTUCKET CLOUDY 49 46 90 SE12 30.00F PROVIDENCE MOCLDY 52 51 97 SE5 29.99F HARTFORD CLOUDY 56 49 77 S7 29.96F ALBANY MOCLDY 62 48 60 SE12 29.90F NEW YORK CITY CLOUDY 62 51 67 E12 29.91F $$ ANZ081-ANZ082-ANZ150-NHZ014-MEZ023>029-290500- COASTAL MARINE OBSERVATIONS STATION/POSITION TIME TEMP WIND PRES WAVE AIR SEA DIR/SP/G HT/PER (UTC) (F) (DEG/KT/KT) (MB) (FT/S) MOUNT DESERT ROC 0400 45 1018.4F MATINICUS ROCK 0300 46 140/ 11/ 11 1017.4F ISLE OF SHOALS 0300 50 120/ 9/ 10 1015.7F JEFFREYS LEDGE 0306 49 N/A 3/ 8 CASHES LEDGE BUO 0250 47 49 1017.3 3/ 7 GEORGES BANK BUO 0250 45 47 1017.9 3/ 8 $$ .............KEY.............. WCI - WIND CHILL TC - TEMPERATURE IN CELSIUS VSB - VISIBILITY IN MILES HX - HEAT INDEX FAIR- INDICATES FEW OR NO CLOUDS BELOW 12,000 FT, WITH NO SIGNIFICANT WEATHER AND/OR OBSTRUCTIONS TO VISIBILITY.

USA.gov is the U.S. government's official web portal to all federal, state and local government web resources and services.